Preview of NWS' New Version of Forecast
This preview is not operational and should not be used for support decisions.

Regional Weather Roundup (RWR)

Issued by National Weather Service (NWS)

                            
000
ASUS45 KABQ 190301
RWRNM 
NEW MEXICO REGIONAL WEATHER ROUNDUP
NATIONAL WEATHER SERVICE ALBUQUERQUE NM
900 PM MDT SUN AUG 18 2019

NOTE: "FAIR" MEANS FEW OR NO CLOUDS BELOW 12,000 FEET AGL WITH NO
       SIGNIFICANT WEATHER OR OBSTRUCTIONS TO VISION.

      THIS PRODUCT IS RELEASED AS TWO VERSIONS.  ONE VERSION NEAR
      THE TOP OF THE HOUR CONTAINING PRELIMINARY DATA FROM ALBUQUERQUE
      AND OTHER STATIONS.  A FINAL VERSION WITH ADDITIONAL DATA IS 
      ISSUED ABOUT 10 MINUTES AFTER THE HOUR.
 
NMZ501-503-504-510>518-190400-
NORTHWEST PLATEAU/NORTHCENTRAL MOUNTAINS
  
CITY           SKY/WX    TMP DP  RH WIND       PRES   REMARKS
FARMINGTON     FAIR      86  23  10 CALM      30.08R                  
LOS ALAMOS       N/A     75  22  13 W10       30.25R                  
SANTA FE       FAIR      72  30  21 N6        30.16R                  
TAOS             N/A     66  27  23 E6        30.24R                  
ANGEL FIRE     FAIR      51  36  55 CALM      30.35R                  

$$
NMZ402-403-502-505>509-190400-
WESTCENTRAL MOUNTAINS/SOUTHWEST MOUNTAINS
  
CITY           SKY/WX    TMP DP  RH WIND       PRES   REMARKS
GALLUP         FAIR      76  18  11 SW10      30.19S                  
GRANTS         FAIR      71  32  23 W6        30.21R                  
SILVER CITY    FAIR      76  39  26 NW7       30.10S                  

$$
NMZ407-409-411-412-190400-
SOUTHERN DESERTS
  
CITY           SKY/WX    TMP DP  RH WIND       PRES   REMARKS
DEMING         FAIR      87  30  13 W9        30.00S                  
LAS CRUCES     FAIR      88  29  12 W13       30.01R                  
HOLLOMAN AFB   FAIR      85  35  17 NE3       29.98R                  
ALAMOGORDO     FAIR      82  36  18 E7        29.98R                  
T OR C         FAIR      89  34  14 S6        30.02R                  

$$
NMZ519>523-190400-
CENTRAL VALLEYS/CENTRAL HIGHLANDS
  
CITY           SKY/WX    TMP DP  RH WIND       PRES   REMARKS
ALBUQUERQUE    CLOUDY    82  29  14 S5        30.07R                  
DOUBLE EAGLE   MOCLDY    73  34  23 S8        30.12R                  
CLINES CORNERS FAIR      71  27  19 W9        30.23R                  
BELEN          FAIR      80  28  14 SE5       30.06S                  
SOCORRO        FAIR      82  30  15 SW6       30.04R                  

$$
NMZ524>526-539-540-190400-
SOUTHCENTRAL MOUNTAINS
  
CITY           SKY/WX    TMP DP  RH WIND       PRES   REMARKS
RUIDOSO        FAIR      75  36  23 W6        30.23R                  

$$
NMZ527>531-190400-
NORTHEAST HIGHLANDS/NORTHEAST PLAINS
  
CITY           SKY/WX    TMP DP  RH WIND       PRES   REMARKS
LAS VEGAS      FAIR      74  20  13 W7        30.20R                  
RATON          FAIR      71  42  35 N10       30.15R                  
CLAYTON        FAIR      72  54  53 E9        30.06R                  

$$
NMZ532>537-190400-
EASTCENTRAL PLAINS
  
CITY           SKY/WX    TMP DP  RH WIND       PRES   REMARKS
TUCUMCARI      FAIR      80  47  31 SE6       29.94R                  
CANNON AFB     FAIR      83  43  23 SE9       29.99R                  
CLOVIS AIRPORT FAIR      81  51  35 S5        29.99R                  

$$
NMZ028-029-538-190400-
SOUTHEAST PLAINS
  
CITY           SKY/WX    TMP DP  RH WIND       PRES   REMARKS
ROSWELL        FAIR      92  43  18 S7        29.90R                  
ARTESIA        FAIR      88  48  25 S7        29.92R                  
CARLSBAD       FAIR      91  44  19 MISG      29.87R                  
HOBBS          FAIR      88  50  27 S6        29.94R                  


$$